When you browse on this site, cookies collect data to enhance your experience and personalize the content and advertising you see.
Visit our Privacy Policy to learn more. By continuing to use the site, you agree to this use of cookies and data.
  • In Hungary
  • List of Countries
  • For 7 days
  • Water Temperature
  • Weather Map
  • News
  • Weather Widgets
  • user-avatar
    Login

    Hourly Weather Temiskaming Shores

    Today, 12 November, Tuesday

    Time Temperature Precipitation Wind Pressure Humidity
    00:00 -17°C° 0 mm 2 mps 747 mmHg 94%
    01:00 -18°C° 0 mm 2 mps 747 mmHg 93%
    02:00 -18°C° 0 mm 2 mps 747 mmHg 94%
    03:00 -18°C° 0 mm 2 mps 746 mmHg 95%
    04:00 -18°C° 0 mm 2 mps 746 mmHg 96%
    05:00 -18°C° 0 mm 2 mps 746 mmHg 96%
    06:00 -18°C° 0 mm 2 mps 746 mmHg 95%
    07:00 -19°C° 0 mm 2 mps 746 mmHg 95%
    08:00 -19°C° 0 mm 3 mps 746 mmHg 92%
    09:00 -18°C° 0 mm 3 mps 746 mmHg 88%
    10:00 -17°C° 0 mm 3 mps 746 mmHg 85%
    11:00 -17°C° 0 mm 4 mps 746 mmHg 81%
    12:00 -17°C° 0 mm 4 mps 746 mmHg 78%
    13:00 -16°C° 0 mm 4 mps 746 mmHg 75%
    14:00 -16°C° 0 mm 4 mps 746 mmHg 76%
    15:00 -17°C° 0 mm 4 mps 746 mmHg 77%
    16:00 -17°C° 0 mm 4 mps 745 mmHg 78%
    17:00 -18°C° 0 mm 4 mps 746 mmHg 81%
    18:00 -17°C° 0 mm 3 mps 746 mmHg 84%
    19:00 -18°C° 0 mm 3 mps 747 mmHg 87%
    20:00 -18°C° 0 mm 3 mps 747 mmHg 88%
    21:00 -19°C° 0 mm 3 mps 747 mmHg 89%
    22:00 -19°C° 0 mm 3 mps 747 mmHg 90%
    23:00 -19°C° 0 mm 3 mps 747 mmHg 90%

    Tomorrow, 13 November, Wednesday

    Time Temperature Precipitation Wind Pressure Humidity
    00:00 -19°C° 0 mm 3 mps 747 mmHg 91%
    01:00 -19°C° 0 mm 3 mps 747 mmHg 92%
    02:00 -19°C° 0 mm 2 mps 747 mmHg 92%
    03:00 -19°C° 0 mm 2 mps 748 mmHg 93%
    04:00 -19°C° 0 mm 2 mps 748 mmHg 93%
    05:00 -17°C° 0 mm 1 mps 748 mmHg 93%
    06:00 -17°C° 0 mm 1 mps 748 mmHg 93%
    07:00 -17°C° 0 mm 1 mps 749 mmHg 93%
    08:00 -16°C° 0 mm 1 mps 749 mmHg 87%
    09:00 -14°C° 0 mm 1 mps 749 mmHg 81%
    10:00 -12°C° 0 mm 1 mps 749 mmHg 75%
    11:00 -11°C° 0 mm 1 mps 749 mmHg 73%
    12:00 -12°C° 0 mm 2 mps 748 mmHg 71%
    13:00 -9°C° 0 mm 2 mps 748 mmHg 69%
    14:00 -10°C° 0 mm 3 mps 747 mmHg 70%
    15:00 -10°C° 0 mm 3 mps 747 mmHg 72%
    16:00 -10°C° 0 mm 3 mps 746 mmHg 73%
    17:00 -10°C° 0 mm 3 mps 746 mmHg 76%
    18:00 -12°C° 0 mm 4 mps 745 mmHg 79%
    19:00 -12°C° 0 mm 4 mps 745 mmHg 82%
    20:00 -11°C° 0.2 mm 4 mps 745 mmHg 85%
    21:00 -11°C° 0.2 mm 4 mps 744 mmHg 88%
    22:00 -10°C° 0.2 mm 4 mps 744 mmHg 92%
    23:00 -10°C° 0.3 mm 4 mps 743 mmHg 92%

    Day after tomorrow, 14 November, Thursday

    Time Temperature Precipitation Wind Pressure Humidity
    00:00 -9°C° 0.3 mm 4 mps 743 mmHg 92%
    01:00 -9°C° 0.3 mm 4 mps 742 mmHg 93%
    02:00 -9°C° 0.2 mm 4 mps 742 mmHg 94%
    03:00 -7°C° 0.2 mm 3 mps 742 mmHg 94%
    04:00 -7°C° 0.2 mm 3 mps 741 mmHg 95%
    05:00 -7°C° 0.2 mm 3 mps 741 mmHg 95%
    06:00 -7°C° 0.2 mm 2 mps 741 mmHg 96%
    07:00 -7°C° 0.2 mm 2 mps 741 mmHg 96%
    08:00 -6°C° 0 mm 2 mps 741 mmHg 92%
    09:00 -5°C° 0 mm 2 mps 741 mmHg 88%
    10:00 -4°C° 0 mm 2 mps 741 mmHg 84%
    11:00 -5°C° 0 mm 3 mps 741 mmHg 81%
    12:00 -4°C° 0 mm 3 mps 741 mmHg 77%
    13:00 -2°C° 0 mm 3 mps 741 mmHg 74%
    14:00 -2°C° 0 mm 3 mps 740 mmHg 77%
    15:00 -4°C° 0 mm 3 mps 740 mmHg 79%
    16:00 -4°C° 0 mm 3 mps 739 mmHg 82%
    17:00 -4°C° 0 mm 4 mps 739 mmHg 84%
    18:00 -4°C° 0 mm 4 mps 739 mmHg 85%
    19:00 -5°C° 0 mm 4 mps 739 mmHg 87%
    20:00 -5°C° 0 mm 4 mps 738 mmHg 87%
    21:00 -6°C° 0 mm 5 mps 738 mmHg 86%
    22:00 -7°C° 0 mm 5 mps 737 mmHg 86%
    23:00 -6°C° 0.2 mm 5 mps 737 mmHg 88%

    15 November, Friday

    Time Temperature Precipitation Wind Pressure Humidity
    00:00 -6°C° 0.2 mm 5 mps 736 mmHg 90%
    01:00 -5°C° 0.2 mm 6 mps 736 mmHg 92%
    02:00 -5°C° 0.5 mm 6 mps 735 mmHg 91%
    03:00 -5°C° 0.5 mm 6 mps 735 mmHg 90%
    04:00 -5°C° 0.5 mm 6 mps 735 mmHg 88%
    05:00 -7°C° 0.1 mm 5 mps 736 mmHg 85%
    06:00 -8°C° 0.1 mm 5 mps 737 mmHg 82%
    07:00 -10°C° 0.1 mm 4 mps 737 mmHg 79%
    08:00 -12°C° 0 mm 5 mps 739 mmHg 78%
    09:00 -14°C° 0 mm 6 mps 740 mmHg 76%
    10:00 -14°C° 0 mm 7 mps 742 mmHg 74%
    11:00 -15°C° 0 mm 6 mps 743 mmHg 72%
    12:00 -16°C° 0 mm 6 mps 745 mmHg 69%
    13:00 -15°C° 0 mm 5 mps 746 mmHg 67%
    14:00 -17°C° 0 mm 5 mps 747 mmHg 71%
    15:00 -16°C° 0 mm 4 mps 748 mmHg 75%
    16:00 -17°C° 0 mm 4 mps 749 mmHg 79%
    17:00 -17°C° 0 mm 3 mps 750 mmHg 83%
    18:00 -18°C° 0 mm 3 mps 751 mmHg 87%
    19:00 -17°C° 0 mm 2 mps 752 mmHg 90%
    20:00 -18°C° 0 mm 2 mps 752 mmHg 91%
    21:00 -18°C° 0 mm 2 mps 753 mmHg 92%
    22:00 -19°C° 0 mm 2 mps 754 mmHg 93%
    23:00 -19°C° 0 mm 2 mps 754 mmHg 93%

    16 November, Saturday

    Time Temperature Precipitation Wind Pressure Humidity
    00:00 -17°C° 0 mm 1 mps 755 mmHg 93%
    01:00 -17°C° 0 mm 1 mps 755 mmHg 93%
    02:00 -17°C° 0 mm 1 mps 755 mmHg 92%
    03:00 -18°C° 0 mm 1 mps 756 mmHg 91%
    04:00 -18°C° 0 mm 0 mps 756 mmHg 91%
    05:00 -18°C° 0 mm 0 mps 756 mmHg 90%
    06:00 -18°C° 0 mm 0 mps 756 mmHg 90%
    07:00 -18°C° 0 mm 0 mps 756 mmHg 89%
    08:00 -16°C° 0 mm 0 mps 756 mmHg 84%
    09:00 -14°C° 0 mm 1 mps 756 mmHg 79%
    10:00 -13°C° 0 mm 1 mps 756 mmHg 73%
    11:00 -11°C° 0 mm 1 mps 755 mmHg 72%
    12:00 -12°C° 0 mm 2 mps 755 mmHg 71%
    13:00 -9°C° 0 mm 2 mps 754 mmHg 69%
    14:00 -9°C° 0 mm 2 mps 754 mmHg 72%
    15:00 -9°C° 0 mm 2 mps 753 mmHg 75%
    16:00 -9°C° 0 mm 2 mps 753 mmHg 78%
    17:00 -9°C° 0 mm 2 mps 752 mmHg 79%
    18:00 -10°C° 0 mm 2 mps 752 mmHg 81%
    19:00 -12°C° 0 mm 3 mps 752 mmHg 82%
    20:00 -12°C° 0 mm 3 mps 751 mmHg 82%
    21:00 -12°C° 0 mm 3 mps 751 mmHg 83%
    22:00 -12°C° 0 mm 3 mps 750 mmHg 83%
    23:00 -12°C° 0 mm 3 mps 750 mmHg 83%

    17 November, Sunday

    Time Temperature Precipitation Wind Pressure Humidity
    00:00 -12°C° 0 mm 3 mps 749 mmHg 84%
    01:00 -12°C° 0 mm 3 mps 748 mmHg 84%
    02:00 -12°C° 0 mm 3 mps 748 mmHg 84%
    03:00 -12°C° 0 mm 3 mps 748 mmHg 84%
    04:00 -10°C° 0 mm 3 mps 747 mmHg 85%
    05:00 -10°C° 0 mm 3 mps 747 mmHg 85%
    06:00 -12°C° 0 mm 3 mps 747 mmHg 85%
    07:00 -12°C° 0 mm 3 mps 746 mmHg 85%
    08:00 -10°C° 0 mm 3 mps 746 mmHg 84%
    09:00 -9°C° 0 mm 3 mps 746 mmHg 83%
    10:00 -8°C° 0 mm 3 mps 745 mmHg 82%
    11:00 -7°C° 0 mm 3 mps 745 mmHg 82%
    12:00 -6°C° 0 mm 3 mps 744 mmHg 83%
    13:00 -5°C° 0 mm 3 mps 744 mmHg 84%
    14:00 -5°C° 0 mm 3 mps 743 mmHg 85%
    15:00 -5°C° 0 mm 3 mps 743 mmHg 85%
    16:00 -5°C° 0 mm 3 mps 742 mmHg 86%
    17:00 -5°C° 0 mm 3 mps 742 mmHg 87%
    18:00 -5°C° 0 mm 3 mps 742 mmHg 88%
    19:00 -6°C° 0 mm 3 mps 742 mmHg 89%
    20:00 -6°C° 0 mm 3 mps 742 mmHg 89%
    21:00 -5°C° 0 mm 2 mps 741 mmHg 90%
    22:00 -5°C° 0 mm 2 mps 741 mmHg 91%
    23:00 -5°C° 0.1 mm 2 mps 741 mmHg 91%
    Show more